Regional Weather Roundup
Issued by NWS Goodland, KS

Home | Current Version | Previous Version | Text Only | Print | Product List | Glossary On
Versions: 1 2 3 4 5 6 7 8 9 10 11 12 13 14 15 16 17 18 19 20 21 22 23 24 25 26 27 28 29 30 31 32 33 34 35 36 37 38 39 40 41 42 43 44 45 46 47 48 49 50
000
ASUS43 KGLD 021208
RWRGLD

GOODLAND FORECAST AREA HOURLY WEATHER ROUNDUP
NATIONAL WEATHER SERVICE GOODLAND KS
600 AM MDT MON MAY 02 2016

...OFFICIAL OBSERVATIONS...

CITY           SKY/WX    TMP DP  RH WIND       PRES   REMARKS
GOODLAND KS    CLEAR     29  25  85 W9        30.22S
HILL CITY KS   CLEAR     38  35  89 NW7       30.21R
IMPERIAL NEB   CLEAR     33  28  81 W7        30.22S
MCCOOK NEB     CLEAR     33  30  88 W3        30.21S
AKRON CO       CLEAR     28  24  85 W13       30.23S WCI  17
BURLINGTON CO  CLEAR     28  23  81 W10       30.24R WCI  19
LIMON CO       CLOUDY    21  19  92 NW5       30.24F
$$

...UNOFFICIAL OBSERVATIONS...

CITY           SKY/WX    TMP DP  RH WIND       PRES   REMARKS
COLBY KS       CLEAR     34  34 100 W9        30.23S
LENORA KS        N/A     36  32  85 MISG        N/A
NORTON KS      CLEAR     36  30  80 W12       30.19S
SHARON SPRINGS   N/A     30  28  90 W7          N/A
TRIBUNE KS     CLOUDY    34  30  86 W8        30.25S
KIT CARSON CO    N/A     29  26  87 MISG        N/A
YUMA CO          N/A     28  26  90 CALM        N/A
$$




USA.gov is the U.S. government's official web portal to all federal, state and local government web resources and services.